Location: Bushey
(51.6333°N, 0.3667°W)
Time: 02:04:52
(UTC+00:00)

MetOp-B - Pass Details

Date: 03 March 2021
Orbit: 819 x 821 km, 98.7° (Epoch: 11 April)

Event Time Altitude Azimuth Distance (km) Brightness Sun altitude
Exits shadow 20:49:48 79° 331° (NNW) 843 4.1 -28.5°
Drops below altitude 10° 20:54:52 10° 344° (NNW) 2,432 7.1 -29.2°
Sets 20:57:14 0° 345° (NNW) 3,369 7.9 -29.5°
